Location: Unspecified
(44.4377°N, 88.0525°W)
Time: 17:31:42
(UTC-05:00)

Okean 3 - Visible Passes

Search period start: 19 August 2017 00:00
Search period end: 29 August 2017 00:00
Orbit: 577 x 603 km, 82.5° (Epoch: 19 August)

Date Brightness Start Highest point End Pass type
(mag) Time Alt. Az. Time Alt. Az. Time Alt. Az.
21 Aug 6.1 20:12:48 10° NW 20:16:16 24° W 20:19:44 10° SW visible
22 Aug 6.5 20:21:35 10° NW 20:24:21 17° W 20:27:06 10° SW visible
23 Aug 7.0 20:30:57 10° WNW 20:32:24 11° W 20:33:50 10° WSW visible
